Reflectivity
-20 -20 -20 -20 -20 -20 -7 -9 -3 3 -20 -15 -20 -20 -20 -20 -12 13 2 -5 -20 -20 -12 -20 -20 -20 -20 -20 -20 -20 -20 -20 -20 -20 -20 -20 -20 -20 -20 -20 -20 -20 -20 -20 -20
-20 -20 -20 -20 -20 -20 -20 -20 -20 -8 -20 -15 -20 -20 -20 -3 3 2 -20 -20 -20 -20 -20 -20 -20 -20 -20 -20 -20 -20 -20 -20 -20 -20 -20 -20 -20 -20 -20 -20 -20 -20 -20 -20 -20
-20 -20 -20 -20 -20 -20 -20 -20 -20 -20 -20 -20 -20 -20 -20 14 10 -20 -20 -20 -20 7 -20 -20 -20 -20 -20 -20 -20 -20 -20 -20 -20 -20 -20 -20 -20 -20 -20 -20 -20 -20 -20 -20 -20
-20 -20 -20 -20 -20 -20 -20 -20 -20 -20 -20 -20 -20 -18 -16 -20 -20 -20 -20 -20 -20 13 -14 8 -20 8 -20 -20 -20 -20 -20 -20 -20 -20 -20 -20 -20 -20 -20 -20 -20 -20 -20 -20 -20
-20 -20 -20 -20 -20 -20 -20 -20 -20 -20 -20 -20 -20 4 18 16 -20 -20 7 -20 27 16 -20 19 -20 -3 -6 -20 -20 -20 -20 -20 -20 -20 -20 -20 -20 -20 -20 -20 -20 -20 -20 -20 -20
-20 -20 -20 -20 -20 -20 -20 -20 -20 -20 -20 -20 -20 -17 -20 -6 -20 -20 -20 -16 -6 -13 -20 22 -4 -20 -15 -20 -20 -20 -20 -20 -20 -20 -20 -20 -20 -20 -20 -20 -20 -20 -20 -20 -20
-20 -20 -20 -20 -20 -20 -20 -20 -20 -20 -20 -20 -14 -19 -20 -20 -20 -20 -20 -20 21 8 27 11 -2 -20 -20 -20 -20 -20 -20 -20 -20 -20 -20 -20 -20 -20 -20 -20 -20 -20 -20 -20 -20
-20 -20 -20 -20 -20 -20 -20 -20 -20 -20 -20 -20 5 -20 -20 -3 -20 -20 -20 25 -16 2 21 23 4 -20 -20 -20 -20 -20 -20 -20 -20 -20 -20 -20 -20 -20 -20 -20 -20 -20 -20 -20 -20
-20 -20 -20 -20 -20 -20 -20 -20 -20 -20 -9 23 -20 -12 -7 -19 -20 -20 -20 -4 5 33 11 34 17 -20 -20 -14 -20 -20 -20 -20 -20 -20 -20 -20 -20 -20 -20 -20 -20 -20 -20 -20 -20
-20 -20 -20 -20 -20 -20 -20 -20 -20 -20 -16 -20 -20 -7 22 -4 -20 -20 -14 -11 20 29 19 27 31 2 -20 -20 -12 -20 -20 -20 -20 -20 -20 -20 -20 -20 -20 -20 -20 -20 -20 -20 -20
-20 -20 -20 -20 -20 -20 -20 -20 -20 -20 -20 -20 -20 -20 -20 5 -20 -20 -20 -4 1 20 18 2 -12 -20 -20 -20 -20 -20 -20 -20 -20 -20 -20 -20 -20 -20 -20 -20 -20 -20 -20 -20 -20
-20 -20 -20 -20 -20 -20 -20 -20 -20 -20 -20 -20 -20 -20 3 -14 6 -20 -20 -20 -20 -0 -2 -20 -20 -20 -20 -20 -20 -20 -20 -20 -20 -20 -20 -20 -20 -20 -20 -20 -20 -20 -20 -20 -20
-20 -20 -20 -20 -20 -20 -20 -20 -20 -20 -20 -20 -0 -15 -2 -16 -5 -7 -12 -20 -16 -13 -20 -20 -14 -20 -14 -7 -7 -20 -20 -20 -20 -20 -20 -20 -20 -20 -20 -20 -20 -20 -20 -20 -20
-20 -20 -20 -20 -20 -20 -20 -20 -20 -20 -20 -20 -20 -20 -17 -19 5 4 -10 10 -18 -2 8 0 -20 -20 -20 5 6 -20 -20 -20 -20 -20 -20 -20 -20 -20 -20 -20 -20 -20 -20 -20 -20
-20 -20 -20 -20 -20 -20 -20 -20 -20 -20 -20 -20 -19 18 -20 7 13 25 30 33 37 34 36 10 -20 -20 -20 -20 -20 -20 -2 -20 -20 -20 -20 -20 -20 -20 -20 -20 -20 -20 -20 -20 -20
-20 -20 -20 -20 -20 -20 -20 -20 -20 -20 -20 -20 -19 -20 5 -1 -7 -6 12 4 18 26 16 27 21 -18 -20 -20 -8 -5 8 -16 -20 -20 -20 -20 -20 -20 -20 -20 -20 -20 -20 -20 -20
-0 -20 -20 -20 -20 -20 -20 -20 -20 -20 -20 -20 -20 -20 -20 -7 -14 2 -12 -8 -20 -10 -6 2 3 -5 -18 -1 14 -4 -19 13 -20 -20 -20 -20 -20 -20 -20 -20 -20 -20 -20 -20 -20
-20 -20 -20 -20 -20 -20 -20 -20 -20 -20 -20 -20 -20 -20 -20 -20 -20 -20 -20 -20 -20 -20 -20 -20 -20 -20 -18 7 -18 12 7 -20 -20 -20 -20 -20 -20 -20 -20 -20 -20 -20 -20 -20 -20
-20 -20 -20 -20 -20 -20 -20 -20 -20 -20 -20 -20 -20 -20 -20 -20 -20 -20 -20 -20 -20 -20 -20 -20 -20 -20 13 5 2 -19 -20 -20 -20 -20 -20 -20 -20 -20 -20 -20 -20 -20 -20 -20 -20
-20 -20 -20 -20 -20 -20 -20 -20 -20 -20 -20 -20 -20 -20 -20 -20 -20 -20 -20 -20 -20 -20 -20 -20 -20 -20 -20 -20 -20 -20 -20 -20 -20 -20 -20 -20 -20 -20 -20 -20 -20 -20 -20 -20 -20
-20 -20 -20 -20 -20 -20 -20 -20 -20 -20 -20 -20 -20 -20 -20 -20 -20 -20 -20 -20 -20 -20 -20 -20 -20 -20 -20 -20 -20 -20 -20 -20 -20 -20 -20 -20 -20 -20 -20 -20 -20 -20 -20 -20 -20
-20 -20 -20 -20 -20 -20 -20 -20 -20 -20 -20 -20 -20 -20 -20 -20 -20 -20 -20 -20 -20 -20 -20 -20 -20 -20 -20 -20 -20 -20 -20 -20 -20 -20 -20 -20 -20 -20 -20 -20 -20 -20 -20 -20 -20
-20 -20 -20 -20 -20 -20 -20 -20 -20 -20 -20 -20 -20 -20 -20 -20 -20 -20 -20 -20 -20 -20 -20 -20 -20 -20 -20 -20 -20 -20 -20 -20 -20 -20 -20 -20 -20 -20 -20 -20 -20 -20 -20 -20 -20
-20 -20 -20 -20 -20 -20 -20 -20 -20 -20 -20 -20 -20 -20 -20 -20 -20 -20 -20 -20 -20 -20 -20 -20 -20 -20 -20 -20 -20 -20 -20 -20 -20 -20 -20 -20 -20 -20 -20 -20 -20 -20 -20 -20 -20
-20 -20 -20 -20 -20 -20 -20 -20 -20 -20 -20 -20 -20 -20 -20 -20 -20 -20 -20 -20 -20 -20 -20 -20 -20 -20 -20 -20 -20 -20 -20 -20 -20 -20 -20 -20 -20 -20 -20 -20 -20 -20 -20 -20 -20
-20 -20 -20 -20 -20 -20 -20 -20 -20 -20 -20 -20 -20 -20 -20 -20 -20 -20 -20 -20 -20 -20 -20 -20 -20 -20 -20 -20 -20 -20 -20 -20 -20 -20 -20 -20 -20 -20 -20 -20 -20 -20 -20 -20 -20
-20 -20 -20 -20 -20 -20 -20 -20 -20 -20 -20 -20 -20 -20 -20 -20 -20 -20 -20 -20 -20 -20 -20 -20 -20 -20 -20 -20 -20 -20 -20 -20 -20 -20 -20 -20 -20 -20 -20 -20 -20 -20 -20 -20 -20
Wind_Speed
12 14 14 14 14 15 14 12 12 11 11 13 16 17 14 11 11 7 12 6 11 16 3 0 4 5 6 4 2 3 1 5 7 6 6 6 5 3 1 9 5 3 7 9 18
13 15 15 14 13 13 13 12 13 13 13 13 13 14 13 7 4 10 9 15 19 17 3 5 5 6 3 4 3 4 4 6 7 6 2 3 6 9 6 6 6 8 13 19 17
13 14 15 14 13 12 12 12 11 12 12 13 12 10 9 4 1 6 17 21 19 12 6 3 7 6 5 3 5 5 5 9 3 5 2 5 4 3 12 1 7 13 16 16 15
12 13 14 15 15 14 12 11 10 11 13 12 12 11 6 6 3 5 14 21 20 10 6 4 10 10 7 8 6 3 8 8 6 6 5 5 6 6 3 3 11 20 20 15 15
13 13 14 15 14 13 12 10 10 9 13 11 9 7 3 2 3 9 13 15 7 6 10 8 5 6 10 6 5 8 4 8 5 6 7 4 5 8 4 4 17 17 15 14 12
13 14 14 14 14 15 14 11 8 8 10 13 6 7 2 2 5 7 6 0 5 7 8 11 1 6 6 10 10 6 14 7 7 4 5 4 4 7 1 8 14 16 12 11 12
14 14 14 15 14 14 15 11 9 7 7 13 13 3 2 3 6 5 7 2 2 2 5 1 1 1 2 6 10 9 10 5 7 4 4 1 3 4 7 7 12 12 11 11 11
13 14 15 15 15 15 16 12 10 8 10 13 8 2 1 5 8 10 7 3 8 6 1 2 6 3 3 4 4 6 5 4 5 5 3 4 4 4 8 12 10 10 9 10 9
12 14 15 15 16 14 14 9 7 11 10 11 5 3 1 12 5 5 6 3 7 2 3 3 1 1 5 1 4 2 4 4 3 7 2 2 2 6 7 9 9 9 9 9 8
12 13 15 14 15 14 14 1 5 6 8 2 3 3 2 4 5 4 5 5 2 5 4 4 2 4 4 4 5 6 5 5 5 5 2 2 2 4 6 8 10 8 8 8 8
11 12 14 14 13 14 4 2 4 3 3 6 3 4 4 2 4 5 4 2 4 2 3 2 4 7 10 6 5 4 6 7 3 5 5 7 5 7 7 5 8 9 9 9 9
11 11 13 14 12 14 1 2 1 1 3 5 4 5 2 2 2 2 3 2 1 3 2 3 7 10 11 11 8 4 5 3 2 4 5 8 6 7 8 6 8 10 10 10 7
12 12 12 14 15 3 4 2 1 1 1 4 3 5 4 5 3 1 1 0 2 1 8 5 5 11 9 13 7 6 5 6 8 5 1 8 4 5 5 4 5 7 7 8 11
12 12 12 16 2 1 2 4 2 2 4 4 2 5 5 4 3 5 3 0 2 4 7 6 8 9 9 12 6 5 10 11 8 6 6 4 5 7 7 10 7 9 7 7 9
14 12 13 5 3 2 3 3 4 3 6 5 4 3 7 1 10 3 2 2 5 10 5 6 3 5 9 6 4 7 2 16 10 6 7 0 6 7 8 6 12 10 8 7 7
15 14 12 3 1 2 3 3 4 8 3 4 5 5 2 3 7 6 4 4 5 1 7 5 3 2 4 3 5 1 4 6 5 5 4 2 5 5 6 10 2 5 8 7 9
16 11 4 2 2 1 2 3 7 7 5 4 2 5 5 7 4 7 7 5 4 1 2 5 1 2 3 1 1 5 7 3 5 4 6 5 4 8 1 3 1 6 9 9 8
14 5 5 3 3 3 2 6 8 6 1 2 3 6 4 4 4 5 2 0 3 4 2 4 6 5 5 1 3 4 6 6 6 5 4 5 4 4 1 2 5 8 10 8 7
11 1 1 2 4 4 5 6 7 3 4 5 8 2 2 2 3 4 2 2 1 3 3 5 4 3 3 3 0 2 3 4 7 3 6 3 3 4 1 5 7 7 7 7 7
1 1 2 4 5 4 6 4 4 2 3 2 3 3 2 4 3 3 2 3 4 2 2 1 4 3 4 3 3 3 1 5 3 4 3 5 2 4 1 2 4 6 6 6 6
2 3 2 5 3 5 4 4 1 3 2 0 2 4 4 3 4 3 3 2 3 5 2 1 4 4 3 3 1 4 3 1 2 4 6 5 4 4 2 4 6 5 5 8 8
1 2 3 3 4 1 2 1 2 2 2 3 2 2 2 4 5 3 2 1 3 2 1 1 5 3 0 1 1 2 2 2 4 3 1 4 4 2 3 4 6 6 8 6 7
1 2 1 3 2 2 3 1 1 3 2 4 3 1 2 2 1 1 2 3 3 2 1 2 1 4 8 5 4 1 2 0 0 2 1 5 3 2 1 1 1 2 2 1 4
2 3 4 3 1 4 2 2 1 1 2 3 3 2 4 1 5 2 1 1 2 1 2 1 3 4 7 5 3 2 2 1 3 4 1 1 6 5 2 4 4 5 4 2 2
2 2 4 1 4 3 1 2 0 2 2 2 1 4 3 3 4 4 5 3 2 3 1 3 4 3 3 3 2 2 4 5 5 4 5 7 7 2 3 5 4 3 5 6 7
2 2 3 2 1 2 2 2 1 1 4 3 3 4 6 4 1 2 4 5 2 7 3 4 1 3 3 2 4 2 1 2 2 2 0 4 3 5 3 4 5 5 5 5 5
2 2 4 3 3 3 1 0 1 1 1 2 2 3 3 1 1 2 1 1 2 3 5 3 3 3 1 1 2 4 5 6 2 2 4 4 5 4 2 3 2 2 4 4 5
Wind_Direction
360 3 12 18 24 23 18 10 0 353 336 312 288 277 268 272 264 244 242 234 225 246 327 216 214 237 279 269 228 315 213 206 202 181 239 188 155 26 39 103 65 360 152 158 144
358 2 2 3 14 18 15 17 12 357 344 330 293 278 270 251 244 247 234 239 235 225 223 201 208 212 227 219 269 165 165 218 203 232 250 231 140 141 109 113 56 64 82 123 129
355 357 355 352 349 355 3 4 357 351 339 328 329 295 265 177 231 251 224 223 229 216 223 238 233 198 204 252 233 203 198 244 323 277 99 237 128 108 123 140 177 156 142 140 140
345 347 350 350 347 341 344 354 349 349 341 340 332 305 197 173 185 339 306 211 213 219 214 233 225 201 175 222 239 270 217 253 309 346 328 175 142 109 63 178 150 154 151 147 156
336 340 345 343 338 329 333 331 342 336 341 347 334 3 62 237 297 335 358 195 170 185 222 234 241 220 198 194 259 227 258 274 247 308 290 292 161 131 87 30 131 135 148 155 163
330 333 337 333 332 331 329 313 310 325 323 353 345 329 264 190 306 353 1 126 177 174 215 227 216 254 215 234 206 206 239 255 272 259 273 155 159 88 253 116 119 141 152 160 169
323 326 328 324 328 327 318 302 269 288 302 334 349 292 20 321 334 41 6 31 221 353 235 114 266 252 339 227 237 242 216 248 239 209 251 181 57 113 157 127 136 152 163 169 180
320 321 321 323 327 327 313 301 270 245 296 314 340 325 100 331 318 37 38 75 57 24 76 216 270 229 203 307 336 201 142 165 254 164 287 92 214 169 158 137 153 161 169 176 185
320 319 319 325 326 329 318 313 253 226 260 289 24 19 335 315 30 9 30 314 99 351 325 90 296 32 3 102 7 99 175 165 224 189 107 112 176 205 163 145 167 174 171 170 172
316 318 317 324 326 332 329 314 229 250 259 245 131 95 317 346 351 337 349 19 125 128 340 78 9 48 35 87 196 188 165 176 175 206 131 119 24 158 173 156 179 174 173 176 177
317 318 316 319 325 326 359 26 15 357 61 158 205 169 266 290 264 35 347 16 47 139 154 331 80 194 218 220 242 155 166 171 229 201 134 172 165 188 194 165 177 185 185 191 192
321 318 314 314 320 318 252 92 189 254 309 218 152 112 87 293 142 27 338 57 109 159 135 62 241 212 209 248 250 254 190 158 8 167 131 176 201 209 192 207 182 191 196 195 186
327 322 316 314 317 328 112 134 153 97 203 196 180 158 184 180 50 90 293 89 77 283 182 181 262 209 220 264 241 244 150 187 168 168 302 111 321 166 239 234 218 211 204 196 177
329 321 322 319 304 283 89 175 181 94 74 279 192 147 137 192 89 165 208 256 44 225 174 270 279 177 216 246 172 224 196 189 157 116 174 127 224 230 205 214 213 227 201 159 172
325 321 322 330 282 65 178 138 131 64 50 261 75 131 166 115 142 224 138 170 214 142 176 243 227 242 241 191 219 207 41 169 165 116 98 135 85 250 147 221 229 219 208 187 141
322 314 325 89 220 164 134 105 66 45 299 8 152 167 134 341 183 136 210 240 290 288 188 225 197 175 193 203 225 290 119 61 62 93 56 212 137 283 178 228 182 199 208 159 122
318 303 289 298 210 158 89 78 40 91 270 327 275 180 205 193 205 179 193 176 187 111 341 15 54 326 75 270 196 51 63 39 30 31 198 338 64 233 80 349 330 230 151 142 133
326 309 230 213 110 81 75 53 72 255 304 268 267 287 235 149 205 204 239 260 218 190 135 114 345 2 348 87 215 97 133 145 158 168 212 5 215 257 81 346 354 100 122 134 137
326 230 249 242 138 86 81 58 196 240 310 335 319 269 291 254 209 171 105 54 31 14 124 119 338 293 135 216 33 243 57 142 107 36 80 229 276 339 135 21 56 106 112 143 159
6 164 237 167 123 79 75 183 194 235 298 319 312 352 42 321 41 113 106 331 334 0 140 178 76 336 325 337 357 73 179 61 10 133 105 301 127 222 99 103 83 110 151 186 179
65 46 236 128 73 56 116 221 203 204 220 162 298 315 346 354 350 51 15 345 333 310 310 344 99 289 359 357 133 34 39 21 137 140 147 139 270 271 109 150 168 193 189 186 193
88 47 200 111 50 64 103 333 323 291 218 290 246 292 296 2 15 62 108 258 320 269 7 90 126 108 122 299 59 87 138 134 118 260 87 123 276 263 144 136 144 170 208 214 196
109 215 298 88 94 339 264 183 2 359 2 337 320 338 303 315 52 107 120 261 345 35 201 339 57 76 349 354 6 46 212 204 191 69 6 103 229 137 150 100 353 48 23 259 218
76 41 332 40 160 142 170 246 223 248 280 295 282 306 329 290 14 83 50 280 315 338 220 338 72 145 170 181 149 161 175 70 95 80 239 49 137 200 99 69 35 28 8 53 38
48 226 195 317 333 12 92 301 5 354 328 254 19 23 311 350 351 37 352 345 298 306 303 121 104 77 65 50 69 145 163 181 172 184 139 195 148 177 176 117 74 47 25 31 12
102 110 1 218 274 7 16 337 51 174 11 347 70 352 33 90 16 321 334 26 51 325 14 358 116 97 53 50 69 28 323 204 270 314 339 149 122 170 125 113 65 33 28 27 1
326 6 106 276 347 82 267 74 40 15 309 46 315 351 44 135 275 270 245 156 52 24 349 50 109 68 40 320 29 327 226 191 178 160 149 154 183 150 74 47 45 38 78 30 340